Skip Page Navigation
NASA JPL Caltech
NASA Logo - Jet Propulsion Laboratory + View the NASA Portal
+ Center for Near-Earth Object Studies
JPL Home Earth Solar System Stars & Galaxies Technology
JPL Solar System Dynamics
BODIES ORBITS EPHEMERIDES TOOLS PHYSICAL DATA DISCOVERY FAQ SITE MAP
IMPORTANT: The SSD Announcement email list is now available. Major changes are coming in the near future, including possible hostname and/or URL changes. To be notified of such changes, subscribe to this email list.

Please visit this page for more details.


JPL Small-Body Database Browser
Search: [ help ]  
351547 (2005 TF36)
Classification: Main-belt Asteroid          SPK-ID: 2351547
Ephemeris | Orbit Diagram | Orbital Elements | Mission Design | Physical Parameters | Discovery Circumstances | Close-Approach Data ]

[ show orbit diagram ]
Orbital Elements at Epoch 2458600.5 (2019-Apr-27.0) TDB
Reference: JPL 10 (heliocentric ecliptic J2000)
 Element Value Uncertainty (1-sigma)   Units 
e .04874124640642272 5.8845e-08  
a 3.060217204175526 3.1691e-08 au
q 2.911058403369633 1.7542e-07 au
i 4.559942573308193 5.5477e-06 deg
node 162.4059914172321 7.4541e-05 deg
peri 348.0692972918599 0.00011661 deg
M 57.18369089131089 8.5056e-05 deg
tp 2458289.903549786405
(2018-Jun-20.40354979)
0.00046285 TDB
period 1955.360354220934
5.35
3.0374e-05
8.316e-08
d
yr
n .1841092866708108 2.8599e-09 deg/d
Q 3.20937600498142 3.3235e-08 au
  Orbit Determination Parameters
   # obs. used (total)      205  
   data-arc span      8120 days (22.23 yr)  
   first obs. used      1997-03-04  
   last obs. used      2019-05-28  
   planetary ephem.      DE431  
   SB-pert. ephem.      SB431-N16  
   condition code      0  
   norm. resid. RMS      .57487  
   source      ORB  
   producer      Otto Matic  
   solution date      2019-Sep-24 06:37:15  

Additional Information
 Earth MOID = 1.92222 au 
 Jupiter MOID = 1.77248 au 
 T_jup = 3.227 
[ show covariance matrix ]

Ephemeris | Orbit Diagram | Orbital Elements | Mission Design | Physical Parameters | Discovery Circumstances | Close-Approach Data ]

Physical Parameter Table
Parameter Symbol Value Units Sigma Reference Notes
absolute magnitude H 16.3   n/a MPO437487  

351547 (2005 TF36)          Discovered 2005-Oct-01 by Spacewatch at Kitt Peak
Reference: 20130127/Numbers.arcLast Updated: 2013-01-31

[ hide close-approach data ]
Close-Approach Data   ...sorted by Date/Time (TDB)
Date/Time (TDB) Time Uncertainty
(days_HH:MM)
Body Nominal Distance (au) Minimum Distance (au) Maximum Distance (au) V-relative (km/s) V-infinity (km/s) JD (TDB) Time Uncertainty (minutes) Semi-major axis (km) Semi-minor axis (km) range-LOV angle (deg) N-sigma BP Orbit Ref. Reference Modified
1903-Oct-28 09:27 00:05 Jupiter 1.7672864203917 1.76728590170279 1.76728693908222 2.82772646260907 2.65282487150838 2416415.894046930 5.23885946161387 306.181925536475 15.3685970002579 -89.9035260940661 2250670.89881176 T 10 CATAB v2.0f-lin.ifort 2019-Sep-24 06:37:17 2019-Sep-24 06:37
1952-Aug-25 14:02 00:03 Jupiter 1.89528960187209 1.89528838988142 1.89529081386482 3.30059155119755 3.16229126159279 2434250.084821410 2.91538741623361 138.255020395209 23.4633835815268 71.8557715038873 1984656.63596043 T 10 CATAB v2.0f-lin.ifort 2019-Sep-24 06:37:17 2019-Sep-24 06:37
1962-Mar-18 05:54 00:03 Jupiter 1.82825015775671 1.82824936557578 1.82825094993867 2.83624735228563 2.66790280348196 2437741.745951408 2.50709022089986 126.550127533772 18.9249883326558 -79.8588282370316 2078614.57718196 T 10 CATAB v2.0f-lin.ifort 2019-Sep-24 06:37:17 2019-Sep-24 06:37
2011-Jan-16 20:35 < 00:01 Jupiter 1.77613960249511 1.77613905541855 1.77614014957157 2.89544730783488 2.72577253265962 2455578.357492852 0.556333106059109 63.5919338854586 15.6930340797985 81.8239470499265 2205688.58148075 T 10 CATAB v2.0f-lin.ifort 2019-Sep-24 06:37:17 2019-Sep-24 06:37
2020-Aug-10 05:14 < 00:01 Jupiter 1.98910699013924 1.98910606479111 1.98910791548713 3.20010469108355 3.06414897512318 2459071.717918154 0.543207279086766 55.0635933524372 32.0196250346195 -74.5834723868419 1683806.29839946 T 10 CATAB v2.0f-lin.ifort 2019-Sep-24 06:37:17 2019-Sep-24 06:37
2059-Nov-13 01:37 00:02 Jupiter 1.96615380404324 1.96615264010127 1.96615496798566 3.50297330907286 3.37775346754894 2473410.567453887 2.15341234072576 87.7957188067417 27.9167181320839 63.0177100436744 1825365.5209559 T 10 CATAB v2.0f-lin.ifort 2019-Sep-24 06:37:17 2019-Sep-24 06:37
2069-Jun-07 10:59 00:03 Jupiter 1.78313417091326 1.78313336071333 1.78313498111572 2.80515605578461 2.63037309212471 2476904.957547816 2.68064386150749 155.559249956531 17.699349541964 -80.9763209443169 2266881.49002266 T 10 CATAB v2.0f-lin.ifort 2019-Sep-24 06:37:17 2019-Sep-24 06:37
2118-Apr-09 00:10 00:05 Jupiter 1.8142705682949 1.81426934347334 1.8142717931278 3.00069702931491 2.84085361445862 2494741.506791256 4.95920150161344 269.671456675809 17.7275844031723 81.0705394013118 2126573.65172037 T 10 CATAB v2.0f-lin.ifort 2019-Sep-24 06:37:17 2019-Sep-24 06:37
2127-Oct-29 22:03 00:05 Jupiter 1.9132956467497 1.91329341371699 1.91329787978665 3.04600269633524 2.89702012368477 2498232.418584391 5.34681583854812 194.294328777393 28.2261542806265 -63.5320732867953 1733810.66436197 T 10 CATAB v2.0f-lin.ifort 2019-Sep-24 06:37:17 2019-Sep-24 06:37
2176-Aug-28 04:36 00:08 Jupiter 1.76558061382468 1.76557994700766 1.76558128066048 2.81483515121809 2.63890387757147 2516067.691852756 7.72264340912499 451.34011538471 16.1565629820672 -87.2763667025392 2273015.39681626 T 10 CATAB v2.0f-lin.ifort 2019-Sep-24 06:37:17 2019-Sep-24 06:37

Alternate Designations
 2005 TF36 = 1997 EA22 
Ephemeris | Orbit Diagram | Orbital Elements | Mission Design | Physical Parameters | Discovery Circumstances | Close-Approach Data ]
ABOUT SSD CREDITS/AWARDS PRIVACY/COPYRIGHT GLOSSARY LINKS
FirstGov 2019-Dec-05 16:13 UT
(server date/time)  
NASA Home Page
Site Manager:   Ryan S. Park
Webmaster  Alan B. Chamberlin